TimeCDT,TemperatureF,Dew PointF,Humidity,Sea Level PressureIn,VisibilityMPH,Wind Direction,Wind SpeedMPH,Gust SpeedMPH,PrecipitationIn,Events,Conditions,WindDirDegrees,DateUTC
12:53 AM,39.0,27.0,62,30.11,10.0,SSW,11.5,-,N/A,,Overcast,210,2013-10-26 05:53:00
1:53 AM,37.9,27.0,65,30.08,10.0,SSW,15.0,-,N/A,,Partly Cloudy,210,2013-10-26 06:53:00
2:53 AM,37.9,26.1,62,30.06,10.0,SSW,15.0,-,N/A,,Partly Cloudy,210,2013-10-26 07:53:00
3:53 AM,37.9,26.1,62,30.01,10.0,SSW,16.1,-,N/A,,Overcast,210,2013-10-26 08:53:00
4:53 AM,39.9,26.1,58,29.99,10.0,SW,15.0,25.3,N/A,,Overcast,220,2013-10-26 09:53:00
5:53 AM,39.9,27.0,60,29.95,10.0,SW,16.1,23.0,N/A,,Overcast,220,2013-10-26 10:53:00
6:53 AM,41.0,28.0,60,29.94,10.0,SW,18.4,27.6,N/A,,Overcast,230,2013-10-26 11:53:00
7:53 AM,42.1,28.9,60,29.92,10.0,SW,19.6,26.5,N/A,,Overcast,230,2013-10-26 12:53:00
8:53 AM,42.1,30.0,62,29.91,10.0,SW,17.3,25.3,N/A,,Overcast,230,2013-10-26 13:53:00
9:53 AM,45.0,32.0,60,29.91,10.0,SW,23.0,26.5,N/A,,Overcast,230,2013-10-26 14:53:00
10:53 AM,50.0,33.1,52,29.88,10.0,WSW,18.4,27.6,N/A,,Partly Cloudy,250,2013-10-26 15:53:00
11:53 AM,51.1,34.0,52,29.88,10.0,WSW,17.3,23.0,N/A,,Clear,250,2013-10-26 16:53:00
12:53 PM,52.0,35.1,53,29.88,10.0,West,18.4,25.3,N/A,,Clear,270,2013-10-26 17:53:00
1:53 PM,51.1,34.0,52,29.89,10.0,WNW,12.7,23.0,N/A,,Mostly Cloudy,300,2013-10-26 18:53:00
2:53 PM,54.0,33.1,45,29.91,10.0,WNW,12.7,20.7,N/A,,Mostly Cloudy,300,2013-10-26 19:53:00
3:53 PM,51.1,33.1,50,29.94,10.0,NW,9.2,18.4,N/A,,Overcast,310,2013-10-26 20:53:00
4:53 PM,48.9,33.1,54,29.98,10.0,NNW,6.9,-,N/A,,Overcast,340,2013-10-26 21:53:00
5:53 PM,48.0,32.0,54,30.01,10.0,NW,4.6,-,N/A,,Overcast,320,2013-10-26 22:53:00
6:53 PM,46.0,30.0,54,30.03,10.0,NNW,5.8,-,N/A,,Clear,330,2013-10-26 23:53:00
7:53 PM,44.1,28.9,55,30.05,10.0,NW,4.6,-,N/A,,Clear,320,2013-10-27 00:53:00
8:53 PM,39.0,28.9,67,30.06,10.0,West,4.6,-,N/A,,Clear,260,2013-10-27 01:53:00
9:53 PM,37.9,30.0,73,30.09,10.0,West,4.6,-,N/A,,Clear,270,2013-10-27 02:53:00
10:53 PM,37.0,28.9,73,30.09,10.0,West,3.5,-,N/A,,Clear,260,2013-10-27 03:53:00
11:53 PM,37.0,28.9,73,30.07,10.0,West,3.5,-,N/A,,Clear,280,2013-10-27 04:53:00